Regional Weather Roundup
Issued by NWS

Home | Current Version | Previous Version | Text Only | Print | Product List | Glossary On
Versions: 1 2 3 4 5 6 7 8 9 10 11 12 13 14 15 16 17 18 19 20 21 22 23 24 25 26 27
000
ASUS45 KTFX 230410
RWRMT
MONTANA REGIONAL WEATHER ROUNDUP
NATIONAL WEATHER SERVICE GREAT FALLS MT
1000 PM MDT WED MAR 22 2017

NOTE: "FAIR" INDICATES FEW OR NO CLOUDS BELOW 12000 FEET WITH NO
SIGNIFICANT WEATHER AND/OR OBSTRUCTIONS TO VISIBILITY.

MTZ001>007-043-230500-
WEST OF THE DIVIDE

CITY           SKY/WX    TMP DP  RH WIND       PRES   REMARKS
KALISPELL      CLOUDY    37  36  96 CALM      29.87R
MISSOULA       CLOUDY    45  36  70 NW10      29.87R
BUTTE          CLOUDY    45  23  42 W3        29.83R
MULLAN PASS    LGT SNOW  30  30 100 VRB5      29.87R FOG
ANACONDA         N/A     41  27  56 E3        29.83R
DEER LODGE       N/A     43  28  56 N5        29.85R
EUREKA           N/A     39  37  93 SW5       29.85F
HAMILTON         N/A     46  34  61 N7        29.84R
RONAN            N/A     42  39  89 S5        29.93S
$$

MTZ008-052>055-230500-
SOUTHWEST MONTANA

CITY           SKY/WX    TMP DP  RH WIND       PRES   REMARKS
BOZEMAN        CLOUDY    42  36  79 S6        29.80R
DILLON         CLEAR     38  29  70 SW8       29.81R
W YELLOWSTONE  CLOUDY    30  28  93 CALM      29.87F
ENNIS          CLOUDY    39  28  65 S6        29.88R
THREE FORKS      N/A     45  10  24 CALM      29.81S
$$

MTZ009-010-012-014-046-048-049-054-230500-
EAST SLOPES AND CENTRAL MONTANA

CITY           SKY/WX    TMP DP  RH WIND       PRES   REMARKS
CUT BANK       MOCLDY    41  30  65 W15       29.76S
GREAT FALLS    PTCLDY    43  24  47 W6        29.79R
MALMSTROM AFB  CLEAR     41  26  54 S6        29.79R
HELENA         CLEAR     46  29  51 SW7       29.79R
AUGUSTA          N/A     39  26  61 NW14      29.80R WCI  30
BOWMANS CRNR     N/A     41  24  50 NW10      29.78R
CHOTEAU          N/A     43  28  56 W5        29.81R
FAIRFIELD        N/A     37  26  64 NW6       29.79R
POWER            N/A     36  25  64 NW8       29.78R WCI  30
RAYNESFORD       N/A     42  25  50 SW7       29.80R
$$

MTZ011-013-016-021-045-047-050-051-230500-
NORTH CENTRAL MONTANA

CITY           SKY/WX    TMP DP  RH WIND       PRES   REMARKS
HAVRE          CLOUDY    42  31  64 SW9       29.74R
LEWISTOWN      CLOUDY    51  28  41 CALM      29.79S
N BAR RANCH    CLOUDY    45  37  76 E3        29.83S
CHINOOK          N/A     45  30  57 N9        29.74R
DENTON         MOCLDY    50  27  41 S7        29.74S
FORT BENTON      N/A     52  28  40 MISG      29.77S
GEYSER           N/A     44  25  48 SW12      29.79R
GRASS RANGE    MOCLDY    48  36  64 SE13      29.76F THUNDER
STANFORD       CLOUDY    45  27  49 SE5       29.80R
WINIFRED         N/A     47  25  41 SW5       29.76F
$$

MTZ017>020-022>027-061-062-230500-
NORTHEAST MONTANA

CITY           SKY/WX    TMP DP  RH WIND       PRES   REMARKS
GLASGOW        CLOUDY    44  36  73 SE8       29.75R
JORDAN           N/A     49  37  63 NE3       29.76R
SIDNEY         PTCLDY    39  34  82 NW5       29.79R
WOLF POINT     CLOUDY    41  36  82 NE3       29.76S
MALTA          CLEAR     43  34  70 CALM      29.74R
PLENTYWOOD       N/A     37  34  87 CALM      29.77R
POPLAR           N/A     43  36  75 E7        29.76F
$$

MTZ028>42-056>058-230500-
SOUTHCENTRAL AND SOUTHEAST MONTANA

CITY           SKY/WX    TMP DP  RH WIND       PRES   REMARKS
BAKER          CLOUDY    40  36  86 CALM      29.78F
BILLINGS       TSTM      50  41  71 N13       29.78R
LIVINGSTON     CLOUDY    41  32  70 W3        29.79F
MILES CITY     MOCLDY    50  37  61 SE6       29.75F
BIG TIMBER     MOCLDY    46  34  61 SW10      29.81R
FORSYTH          N/A     48  39  71 CALM      29.76R
HARLOWTON      CLOUDY    50  27  42 NE12      29.77F THUNDER
LAUREL           N/A     52  33  48 NE2       29.79R
$$

REGIONAL REPORTS...DAKOTAS

CITY           SKY/WX    TMP DP  RH WIND       PRES   REMARKS
WILLISTON      PTCLDY    35  31  85 CALM      29.79R
MINOT          CLOUDY    35  29  78 SE9       29.82F WCI  28
DICKINSON      MOCLDY    39  32  76 S12       29.77R WCI  32
BEACH            N/A    N/A N/A N/A MISG        N/A
TIOGA            N/A     36  36 100 CALM      29.81R
WATFORD CITY     N/A     32  32 100 CALM      29.80R
BISMARCK       CLOUDY    35  28  75 E8        29.89S WCI  29
GRAND FORKS    CLOUDY    34  20  56 S15G24    30.06F WCI  24
FARGO          CLOUDY    36  24  62 S23G35    30.08F WCI  24
BUFFALO SD       N/A     50  38  63 NE8       29.70F
RAPID CITY     CLEAR     43  38  82 CALM      29.77F
$$

REGIONAL REPORTS...WYOMING/IDAHO/WASHINGTON

CITY           SKY/WX    TMP DP  RH WIND       PRES   REMARKS
GILLETTE       CLOUDY    43  39  86 S5        29.76S
SHERIDAN       CLEAR     42  38  85 SW5       29.76S
BUFFALO WY     CLOUDY    46  38  73 W9        29.80R
CODY           CLOUDY    52  29  41 W6        29.79R
YELLOWSTONE LA   N/A     30  28  92 CALM      29.90F
IDAHO FALLS    CLOUDY    45  39  79 CALM      29.83F
SALMON         CLOUDY    43  32  65 SE5       29.80S
BOISE          CLOUDY    51  37  58 NW20G25   29.88R
SPOKANE        MOCLDY    44  40  85 S15       29.90R
$$

REGIONAL REPORTS...ALBERTA

CITY           SKY/WX    TMP DP  RH WIND       PRES   REMARKS
EDMONTON       CLEAR     27  23  86 W2        29.68R
CALGARY        PTCLDY    41  28  60 SE9       29.68R
LETHBRIDGE     PTCLDY    41  27  56 W9        29.74S
MEDICINE HAT   CLEAR     45  28  53 W8        29.71R
WATERTON GATE    N/A     41  30  65 SW12G18     N/A
CARDSTON         N/A     43  28  56 SW9         N/A
MILK RIVER       N/A     37  28  70 NW9         N/A  WCI  31
$$

REGIONAL REPORTS...SASKATCHEWAN

CITY           SKY/WX    TMP DP  RH WIND       PRES   REMARKS
SWIFT CURRENT  CLOUDY    41  34  75 W9        29.68R
REGINA         CLEAR     34  30  86 SE13G20   29.68S WCI  25
SASKATOON      MOCLDY    36  32  87 W13       29.65R WCI  27
CYPRESS HILLS    N/A     43  21  42 W5          N/A
VAL MARIE        N/A     39  28  65 W2          N/A
ROCKGLEN         N/A     37  34  87 SW9         N/A  WCI  31
ASSINIBOIA       N/A     21  21 100 NW6         N/A  WCI  14
$$




USA.gov is the U.S. government's official web portal to all federal, state and local government web resources and services.